Regional Weather Roundup
Issued by NWS Cleveland, OH

Home | Current Version | Previous Version | Graphics & Text | Print | Product List | Glossary On
Versions: 1 2 3 4 5 6 7 8 9 10 11 12 13 14 15 16 17 18 19 20 21 22 23 24 25 26 27 28 29 30 31 32 33 34 35 36 37 38 39 40 41 42 43 44 45 46 47 48 49 50
000
ASUS41 KCLE 221610
RWRCLE
OHIO REGIONAL WEATHER ROUNDUP
NATIONAL WEATHER SERVICE WILMINGTON, OH
1100 AM EST WED NOV 22 2017

NOTE: "FAIR" INDICATES FEW OR NO CLOUDS BELOW 12,000 FEET WITH NO
SIGNIFICANT WEATHER AND/OR OBSTRUCTIONS TO VISIBILITY.

OHZ001>008-015>018-024>027-034-035-043-044-221700-
   NORTHWEST OHIO

CITY           SKY/WX    TMP DP  RH WIND       PRES   REMARKS
DEFIANCE       CLOUDY    33  19  56 N6        30.31R WCI  28
FINDLAY        CLOUDY    33  19  56 N8        30.28R WCI  26
TOLEDO EXPRESS CLOUDY    32  19  58 N8        30.30R WCI  25
TOLEDO EXEC    PTSUNNY   31  18  58 W12       30.30R WCI  22
LIMA           CLOUDY    32  21  64 N8        30.29R WCI  25
$$

OHZ009>014-019>023-028>033-038-089-221700-
   NORTHEAST OHIO

CITY           SKY/WX    TMP DP  RH WIND       PRES   REMARKS
CLE-HOPKINS    CLOUDY    34  22  61 NW10      30.27R WCI  26
CLE-LAKEFRONT  CLOUDY    34  22  61 NW10      30.24R WCI  26
CUY CO. ARPT   CLOUDY    34  23  64 N15G21    30.24R WCI  24
LORAIN-ELYRIA  CLOUDY    33  17  51 N10       30.26R WCI  25
ASHTABULA      CLOUDY    33  24  69 NW9       30.21R WCI  25
AKRON-CANTON   CLOUDY    33  23  66 NW10      30.21R WCI  25
WOOSTER        CLOUDY    32  23  69 NW8       30.24  WCI  25
MANSFIELD      CLOUDY    31  22  69 NW8       30.24R WCI  23
YOUNGSTOWN     FLURRIES  32  25  75 NW9       30.20R WCI  24
$$

OHZ042-051>053-060>062-070>072-077>081-221700-
  SOUTHWEST OHIO

CITY           SKY/WX    TMP DP  RH WIND       PRES   REMARKS
CINC-COVINGTON PTSUNNY   35  27  72 N3        30.30R
CINC-LUNKEN    CLOUDY    37  26  64 NE8       30.33R
HAMILTON       CLOUDY    35  28  75 NW9       30.32S WCI  28
DAYTON         PTSUNNY   35  23  61 N15       30.29S WCI  25
WRIGHT-PAT AFB CLOUDY    35  21  56 N13       30.29R WCI  26
DAYTON GENERAL CLOUDY    35  22  58 N12       30.29R WCI  27
WILMINGTON     CLOUDY    33  24  69 N9        30.28R WCI  25
$$

OHZ036-037-039>041-045>050-054>059-063>069-073>076-082>088-221700-
  CENTRAL AND SOUTHEAST OHIO

CITY           SKY/WX    TMP DP  RH WIND       PRES   REMARKS
COLUMBUS       CLOUDY    36  23  59 NW12      30.27R
OSU AIRPORT    CLOUDY    34  24  67 N8        30.27R WCI  27
BOLTON FIELD   CLOUDY    36  25  64 N9        30.28R
RICKENBACK AFB CLOUDY    35  24  65 NW9       30.27R WCI  28
NEWARK         CLOUDY    37  25  61 NW6       30.25S
MARION         CLOUDY    33  21  61 N8        30.28R WCI  26
LANCASTER      CLOUDY    38  28  67 NW9       30.26R
ZANESVILLE     CLOUDY    37  27  67 NW10      30.24R
NEW PHILLY     CLOUDY    35  26  69 NW9       30.25R WCI  28
$$




USA.gov is the U.S. government's official web portal to all federal, state and local government web resources and services.